Content
SEND FEEDBACK

Daily
Averages
Monthly
Summary
Brazil

BRUSQUE, SANTA CATARINA


Home > South America > Brazil > Santa Catarina
Elevation: 79 feet     Latitude: 27 01S     Longitude: 048 54W

WEATHER
 
SELECT A DAY
Number of Records: 179,133;   Date Range: 6/30/96 - 7/23/14
 
SHARE

PRINT THIS DATA

[ ← Previous Day ]
WEATHER ALMANAC - FEBRUARY 13, 2013
[ Next Day → ]
[ °C ]   °F
Weather ElementAverageHighLow
Temperature81.1 °F89.6 °F (1:00 pm)76 °F (4:00 am)
Dewpoint72.5 °F75.2 °F (1:00 am)69.8 °F (1:00 pm)
Humidity75.7 %94 % (1:00 am)52 % (1:00 pm)
Barometer29.81 in29.86 in (10:00 pm)29.77 in (4:00 am)
Wind Speed7.9 mph13.8 mph (7:00 am)
Weather ElementAverage
Visibility7.1 mi
Wind DirectionW (270 °)

Weather ElementTotal
Precipitation---
Cooling Degree Days17.8 (Base 65)
Growing Degree Days32.8 (Base 50)
Averaged from 27 records on February 13, 2013
WEATHER CONDITIONS BREAKOUT
WIND DIRECTION BREAKOUT
WEATHER BY HOUR - FEBRUARY 13, 2013
[ °C ]   °F
Local TimeTemperatureDewpointHumidityBarometerVisibilityWind DirectionWind SpeedGust SpeedPrecipitationEventsConditions
1:00 AM77.0 °F75.2 °F94 %29.80 in5.6 miNW (310°)11.5 mphRainLight Rain
2:00 AM77.0 °F75.2 °F94 %29.80 in6.2 miWNW (300°)11.5 mphScattered Clouds
3:00 AM77.0 °F73.4 °F89 %29.80 in6.2 miNW (320°)6.9 mphScattered Clouds
4:00 AM76.0 °F73.0 °F89 %29.80 in12.0 miNNW (340°)8.1 mphPartly Cloudy
4:00 AM77.0 °F73.4 °F89 %29.77 in6.2 miNNW (340°)8.1 mphScattered Clouds
5:00 AM77.0 °F73.4 °F89 %29.77 in6.2 miNNW (330°)10.4 mphScattered Clouds
6:00 AM77.0 °F73.4 °F89 %29.77 in6.2 miNW (320°)11.5 mphScattered Clouds
7:00 AM77.0 °F73.4 °F89 %29.77 in6.2 miNNW (330°)13.8 mphScattered Clouds
8:00 AM77.0 °F73.4 °F89 %29.77 in6.2 miNNW (330°)13.8 mphPartly Cloudy
9:00 AM78.8 °F73.4 °F83 %29.80 in6.2 miNNW (330°)12.7 mphPartly Cloudy
10:00 AM82.0 °F73.0 °F67 %29.81 in12.0 miNW (320°)11.5 mphScattered Clouds
10:00 AM82.4 °F73.4 °F74 %29.80 in6.2 miNW (320°)11.5 mphPartly Cloudy
11:00 AM84.2 °F73.4 °F70 %29.80 inNorth (360°)11.5 mphClear
12:00 PM87.8 °F71.6 °F58 %29.83 in6.2 miNNW (340°)9.2 mphPartly Cloudy
1:00 PM89.6 °F69.8 °F52 %29.83 in6.2 miNW (310°)4.6 mphPartly Cloudy
2:00 PM89.6 °F71.6 °F55 %29.80 in6.2 miSE (130°)9.2 mphPartly Cloudy
3:00 PM86.0 °F71.6 °F62 %29.83 in6.2 miSouth (170°)8.1 mphPartly Cloudy
4:00 PM83.0 °F72.0 °F62 %29.82 in12.0 miSW (230°)5.8 mphPartly Cloudy
4:00 PM84.2 °F71.6 °F66 %29.80 in6.2 miSW (230°)5.8 mphPartly Cloudy
5:00 PM86.0 °F69.8 °F58 %29.80 in6.2 miSouth (180°)4.6 mphScattered Clouds
6:00 PM86.0 °F69.8 °F58 %29.80 in6.2 miSouth (170°)5.8 mphScattered Clouds
7:00 PM82.4 °F69.8 °F66 %29.80 in6.2 miSSE (150°)5.8 mphScattered Clouds
8:00 PM80.6 °F71.6 °F74 %29.83 in6.2 miSSE (160°)1.2 mphScattered Clouds
9:00 PM78.8 °F71.6 °F78 %29.83 in6.2 miSSW (210°)3.5 mphScattered Clouds
10:00 PM78.0 °F74.0 °F83 %29.86 in12.0 miWSW (240°)2.3 mphMostly Cloudy
10:00 PM78.8 °F73.4 °F83 %29.83 in6.2 miWSW (240°)2.3 mphScattered Clouds
11:00 PM78.8 °F73.4 °F83 %29.86 in6.2 miWest (280°)2.3 mphPartly Cloudy
Hourly data recorded from SBNF, located miles away from Brusque, Santa Catarina







STORIES FROM OUR PARTNERS